GW3011 Weather Reports


time (UTC)temp
F
wind
direction
speed
knots
gust
knots
rain 1hr
in
rain 24hr
in
rain mn
in
humidity
%
barometer
mb
20260509151137 63 202 2.6 3.5 0.00 0.00 0.00 67 1011.3
20260509150635 63 244 2.6 3.5 0.00 0.00 0.00 66 1011.3
20260509150133 63 228 1.7 2.6 0.00 0.00 0.00 67 1011.5
20260509145629 63 314 0.9 1.7 0.00 0.00 0.00 66 1011.3
20260509145124 63 287 0.9 1.7 0.00 0.00 0.00 67 1011.3
20260509144621 64 198 1.7 1.7 0.00 0.00 0.00 65 1011.4
20260509144118 63 259 0.9 1.7 0.00 0.00 0.00 66 1011.3
20260509143615 64 276 2.6 3.5 0.00 0.00 0.00 66 1011.2
20260509143113 62 205 0.9 2.6 0.00 0.00 0.00 67 1011.1
20260509142608 61 304 0.9 1.7 0.00 0.00 0.00 68 1011.3
20260509142104 61 208 1.7 2.6 0.00 0.00 0.00 70 1011.1
20260509141601 62 317 1.7 6.1 0.00 0.00 0.00 68 1011.5
20260509141057 61 312 0.9 0.9 0.00 0.00 0.00 69 1011.3
20260509140554 60 306 0.9 0.9 0.00 0.00 0.00 69 1011.3
20260509140052 60 251 1.7 1.7 0.00 0.00 0.00 70 1011.6
20260509135549 60 296 0.0 0.9 0.00 0.00 0.00 71 1011.5
20260509135047 59 186 0.9 1.7 0.00 0.00 0.00 72 1011.5
20260509134544 59 304 0.0 0.0 0.00 0.00 0.00 71 1011.3
20260509134041 59 202 0.9 1.7 0.00 0.00 0.00 72 1011.4
20260509133538 58 139 3.5 3.5 0.00 0.00 0.00 73 1011.3
20260509133035 59 152 1.7 2.6 0.00 0.00 0.00 73 1011.6
20260509132533 59 188 1.7 5.2 0.00 0.00 0.00 72 1011.4
20260509132031 60 205 1.7 3.5 0.00 0.00 0.00 70 1011.5
20260509131522 60 27 1.7 1.7 0.00 0.00 0.00 70 1011.4
20260509131019 59 218 1.7 2.6 0.00 0.00 0.00 71 1011.4
20260509130514 59 32 0.9 0.9 0.00 0.00 0.00 71 1011.5
20260509130012 59 6 0.9 1.7 0.00 0.00 0.00 71 1011.7
20260509125508 59 299 0.0 0.0 0.00 0.00 0.00 72 1011.9
20260509125004 58 312 0.0 0.0 0.00 0.00 0.00 73 1011.8
20260509124501 58 307 0.0 0.9 0.00 0.00 0.00 73 1011.8
20260509123958 58 302 0.0 0.0 0.00 0.00 0.00 71 1011.8
20260509123456 58 313 0.9 1.7 0.00 0.00 0.00 72 1011.9
20260509122951 58 304 0.9 0.9 0.00 0.00 0.00 72 1011.8
20260509122449 58 308 1.7 2.6 0.00 0.00 0.00 72 1012.0
20260509121945 58 315 0.9 0.9 0.00 0.00 0.00 72 1012.0
20260509121442 58 304 0.0 0.0 0.00 0.00 0.00 71 1011.8
20260509120940 58 351 0.9 0.9 0.00 0.00 0.00 72 1011.8
20260509120438 58 308 0.9 1.7 0.00 0.00 0.00 71 1011.9
20260509115936 58 302 0.0 0.9 0.00 0.00 0.00 71 1011.7
20260509115432 57 289 0.0 0.9 0.00 0.00 0.00 71 1012.1
20260509114930 57 182 2.6 2.6 0.00 0.00 0.00 71 1011.9
20260509114429 57 262 1.7 2.6 0.00 0.00 0.00 71 1012.0
20260509113928 57 261 0.0 0.9 0.00 0.00 0.00 71 1012.0
20260509113425 57 165 3.5 5.2 0.00 0.00 0.00 71 1011.9
20260509112921 57 195 2.6 3.5 0.00 0.00 0.00 71 1011.9
20260509112419 57 182 2.6 3.5 0.00 0.00 0.00 71 1011.9
20260509111915 57 149 1.7 3.5 0.00 0.00 0.00 71 1011.6
20260509111412 57 274 1.7 2.6 0.00 0.00 0.00 71 1011.8
20260509110910 57 301 0.9 0.9 0.00 0.00 0.00 71 1011.9
20260509110406 57 172 3.5 5.2 0.00 0.00 0.00 71 1011.8
20260509105904 57 135 3.5 3.5 0.00 0.00 0.00 71 1012.0
20260509105402 57 231 1.7 2.6 0.00 0.00 0.00 72 1011.8
20260509104859 57 140 5.2 7.8 0.00 0.00 0.00 71 1011.7
20260509104355 57 310 0.0 0.0 0.00 0.00 0.00 72 1011.5
20260509103853 57 248 3.5 6.1 0.00 0.00 0.00 72 1011.4
20260509103350 56 188 1.7 1.7 0.00 0.00 0.00 72 1011.6
20260509102849 56 285 0.0 0.0 0.00 0.00 0.00 72 1011.8
20260509102346 56 268 0.0 0.0 0.00 0.00 0.00 72 1011.5
20260509101841 56 301 0.0 0.9 0.00 0.00 0.00 74 1011.5
20260509101338 56 314 0.9 0.9 0.00 0.00 0.00 75 1011.4
20260509100836 55 327 0.0 0.0 0.00 0.00 0.00 76 1011.6
20260509100333 55 326 0.9 0.9 0.00 0.00 0.00 76 1011.4
20260509095829 55 328 0.0 0.0 0.00 0.00 0.00 76 1011.3
20260509095327 55 319 0.9 0.9 0.00 0.00 0.00 77 1011.3
20260509094824 55 321 1.7 1.7 0.00 0.00 0.00 77 1011.4
20260509094320 55 324 0.9 1.7 0.00 0.00 0.00 78 1011.5
20260509093818 55 325 0.0 0.9 0.00 0.00 0.00 78 1011.6
20260509093315 55 319 0.0 0.0 0.00 0.00 0.00 77 1011.2
20260509092814 55 318 0.0 0.0 0.00 0.00 0.00 78 1011.1
20260509092311 55 322 0.9 0.9 0.00 0.00 0.00 78 1011.4
20260509091809 55 329 0.9 0.9 0.00 0.00 0.00 78 1011.4
20260509091305 55 311 0.0 0.0 0.00 0.00 0.00 78 1011.6
20260509090803 55 313 0.0 0.9 0.00 0.00 0.00 78 1011.4
20260509090300 55 316 0.9 0.9 0.00 0.00 0.00 78 1011.3
20260509085757 56 306 0.0 0.0 0.00 0.00 0.00 78 1011.3
20260509085254 56 296 0.9 0.9 0.00 0.00 0.00 77 1011.4
20260509084751 56 313 0.9 1.7 0.00 0.00 0.00 77 1011.3
20260509084248 57 318 0.9 1.7 0.00 0.00 0.00 74 1011.5
20260509083746 56 333 0.9 0.9 0.00 0.00 0.00 72 1011.3
20260509083242 56 324 0.0 0.9 0.00 0.00 0.00 73 1011.5
20260509082738 56 318 0.0 0.0 0.00 0.00 0.00 74 1011.5
20260509082235 56 318 0.0 0.0 0.00 0.00 0.00 75 1011.6
20260509081732 56 317 0.0 0.0 0.00 0.00 0.00 75 1011.6
20260509081230 56 317 0.0 0.0 0.00 0.00 0.00 76 1011.3
20260509080728 56 317 0.0 0.0 0.00 0.00 0.00 76 1011.4
20260509080225 56 317 0.0 0.0 0.00 0.00 0.00 76 1011.5
20260509075723 56 318 0.0 0.0 0.00 0.00 0.00 75 1011.4
20260509075221 56 318 0.0 0.0 0.00 0.00 0.00 75 1011.4
20260509074717 56 336 0.0 0.0 0.00 0.00 0.00 73 1011.6
20260509074215 56 324 0.0 0.0 0.00 0.00 0.00 74 1011.6
20260509073711 56 325 0.0 0.0 0.00 0.00 0.00 74 1011.7
20260509073207 56 340 0.9 0.9 0.00 0.00 0.00 74 1011.7
20260509072704 55 317 0.0 0.0 0.00 0.00 0.00 76 1011.7
20260509072201 55 310 0.0 0.0 0.00 0.00 0.00 77 1011.8
20260509071657 55 312 0.0 0.0 0.00 0.00 0.00 77 1011.7
20260509071155 56 343 1.7 1.7 0.00 0.00 0.00 77 1011.4
20260509070652 56 312 0.0 0.0 0.00 0.00 0.00 77 1011.5
20260509070148 56 322 0.0 0.9 0.00 0.00 0.00 77 1011.4
20260509065644 56 351 0.9 1.7 0.00 0.00 0.00 76 1011.6
20260509065140 56 16 1.7 1.7 0.00 0.00 0.00 76 1011.7
20260509064637 56 320 1.7 1.7 0.00 0.00 0.00 77 1011.4
20260509064135 55 325 0.0 0.9 0.00 0.00 0.00 77 1011.3
20260509063632 55 319 0.0 0.0 0.00 0.00 0.00 77 1011.3
20260509063128 56 319 0.9 0.9 0.00 0.00 0.00 77 1011.5
20260509062626 56 309 0.0 0.9 0.00 0.00 0.00 77 1011.5
20260509062123 56 315 0.0 0.0 0.00 0.00 0.00 78 1011.5
20260509061619 56 312 0.0 0.0 0.00 0.00 0.00 78 1011.9
20260509061117 56 312 0.0 0.9 0.00 0.00 0.00 77 1011.9
20260509060615 56 312 0.9 1.7 0.00 0.00 0.00 77 1012.0
20260509060110 56 305 0.0 0.0 0.00 0.00 0.00 76 1012.3
20260509055606 56 331 0.9 0.9 0.00 0.00 0.00 75 1012.0
20260509055102 56 318 0.0 0.0 0.00 0.00 0.00 74 1012.3
20260509054559 56 341 0.9 0.9 0.00 0.00 0.00 73 1012.3
20260509054057 56 317 0.9 0.9 0.00 0.00 0.00 72 1012.1
20260509053555 57 310 0.9 0.9 0.00 0.00 0.00 71 1012.3
20260509053051 57 322 0.9 0.9 0.00 0.00 0.00 70 1012.1
20260509052549 57 357 0.9 0.9 0.00 0.00 0.00 69 1012.1
20260509052047 57 314 0.0 0.0 0.00 0.00 0.00 67 1012.4
20260509051545 57 317 0.0 0.0 0.00 0.00 0.00 67 1012.3
20260509051041 57 315 0.0 0.0 0.00 0.00 0.00 66 1012.2
20260509050539 57 319 0.0 0.0 0.00 0.00 0.00 66 1012.1
20260509050035 57 319 0.0 0.0 0.00 0.00 0.00 66 1012.1
20260509045532 56 317 0.0 0.0 0.00 0.00 0.00 67 1012.1
20260509045029 55 316 0.0 0.0 0.00 0.00 0.00 68 1012.0
20260509044527 55 316 0.0 0.0 0.00 0.00 0.00 69 1012.1
20260509044024 55 315 0.0 0.0 0.00 0.00 0.00 69 1011.9
20260509043520 55 315 0.0 0.0 0.00 0.00 0.00 69 1012.0
20260509043010 55 315 0.0 0.0 0.00 0.00 0.00 69 1012.1
20260509042507 55 315 0.0 0.0 0.00 0.00 0.00 68 1012.2
20260509042003 55 315 0.0 0.0 0.00 0.00 0.00 69 1012.0
20260509041500 55 316 0.0 0.0 0.00 0.00 0.00 68 1012.1
20260509040958 55 315 0.0 0.0 0.00 0.00 0.00 68 1012.0
20260509040456 55 315 0.0 0.0 0.00 0.00 0.00 68 1011.9
20260509035952 56 315 0.0 0.0 0.00 0.00 0.00 66 1012.0
20260509035449 56 317 0.0 0.9 0.00 0.00 0.00 66 1012.1
20260509034945 56 313 0.0 0.9 0.00 0.00 0.00 65 1012.3
20260509034443 56 314 0.0 0.9 0.00 0.00 0.00 65 1012.3
20260509033940 56 310 0.0 0.0 0.00 0.00 0.00 65 1012.1
20260509033437 57 310 0.0 0.0 0.00 0.00 0.00 65 1012.2
20260509032934 57 311 0.0 0.9 0.00 0.00 0.00 65 1012.1
20260509032431 57 315 0.9 0.9 0.00 0.00 0.00 65 1012.2
20260509031929 57 314 0.0 0.0 0.00 0.00 0.00 65 1012.1
20260509031426 57 315 0.0 0.0 0.00 0.00 0.00 65 1012.5
20260509030924 57 311 0.0 0.9 0.00 0.00 0.00 64 1012.3
20260509030421 57 311 0.0 0.0 0.00 0.00 0.00 63 1012.2
20260509025918 57 311 0.0 0.0 0.00 0.00 0.00 63 1012.5
20260509025414 57 311 0.0 0.0 0.00 0.00 0.00 63 1012.3
20260509024909 58 312 0.0 0.9 0.00 0.00 0.00 62 1012.3
20260509024405 58 311 0.0 0.0 0.00 0.00 0.00 61 1012.6
20260509023903 58 308 0.0 0.0 0.00 0.00 0.00 61 1012.4
20260509023400 58 15 0.0 0.9 0.00 0.00 0.00 62 1012.5
20260509022856 58 308 0.0 0.0 0.00 0.00 0.00 62 1012.5
20260509022353 58 309 0.0 0.0 0.00 0.00 0.00 62 1012.4
20260509021850 58 319 0.0 0.0 0.00 0.00 0.00 61 1012.0
20260509021347 58 308 0.0 0.0 0.00 0.00 0.00 61 1012.2
20260509020845 58 27 0.0 0.9 0.00 0.00 0.00 61 1012.4
20260509020343 58 357 0.0 0.9 0.00 0.00 0.00 61 1012.3
20260509015840 58 7 1.7 3.5 0.00 0.00 0.00 61 1012.5
20260509015338 58 316 1.7 1.7 0.00 0.00 0.00 61 1012.0
20260509014835 58 337 0.0 0.9 0.00 0.00 0.00 62 1012.0
20260509014332 58 306 0.9 0.9 0.00 0.00 0.00 62 1012.2
20260509013828 57 310 0.0 0.9 0.00 0.00 0.00 62 1011.9
20260509013324 57 349 1.7 2.6 0.00 0.00 0.00 62 1011.9
20260509012815 58 341 2.6 5.2 0.00 0.00 0.00 60 1011.9
20260509012312 58 6 0.9 1.7 0.00 0.00 0.00 60 1011.9
20260509011809 58 356 1.7 2.6 0.00 0.00 0.00 60 1011.6
20260509011307 58 350 2.6 3.5 0.00 0.00 0.00 60 1011.8
20260509010804 58 326 1.7 2.6 0.00 0.00 0.00 61 1011.6
20260509010300 58 336 0.9 1.7 0.00 0.00 0.00 61 1011.4
20260509005758 59 307 1.7 2.6 0.00 0.00 0.00 60 1011.4
20260509005256 60 310 0.9 0.9 0.00 0.00 0.00 56 1011.3
20260509004756 60 316 0.0 0.0 0.00 0.00 0.00 54 1011.2
20260509004253 60 313 0.0 0.0 0.00 0.00 0.00 54 1011.1
20260509003751 60 319 0.9 0.9 0.00 0.00 0.00 54 1011.0
20260509003248 60 320 0.0 0.9 0.00 0.00 0.00 53 1011.0
20260509002745 60 311 0.0 0.0 0.00 0.00 0.00 54 1010.7
20260509002243 60 314 0.9 0.9 0.00 0.00 0.00 53 1010.9
20260509001740 60 311 0.0 0.0 0.00 0.00 0.00 53 1010.7
20260509001236 60 311 0.0 0.0 0.00 0.00 0.00 53 1010.9
20260509000734 60 323 0.0 0.0 0.00 0.00 0.00 53 1010.8
20260509000233 60 310 0.0 0.0 0.00 0.00 0.00 53 1011.0
20260508235728 60 309 1.7 1.7 0.00 0.00 0.00 52 1011.0
20260508235225 60 300 0.0 0.9 0.00 0.00 0.00 52 1010.8
20260508234722 60 301 0.9 0.9 0.00 0.00 0.00 51 1010.9
20260508234218 60 303 0.0 0.9 0.00 0.00 0.00 51 1010.7
20260508233717 60 306 0.0 0.0 0.00 0.00 0.00 53 1010.8
20260508233215 60 303 0.0 0.9 0.00 0.00 0.00 51 1010.7
20260508232712 60 335 0.0 0.9 0.00 0.00 0.00 51 1010.7
20260508232208 60 298 0.9 0.9 0.00 0.00 0.00 51 1010.8
20260508231707 61 301 1.7 2.6 0.00 0.00 0.00 50 1010.7
20260508231203 61 219 1.7 2.6 0.00 0.00 0.00 49 1010.7
20260508230655 61 305 0.0 0.0 0.00 0.00 0.00 49 1010.6
20260508230150 60 306 0.0 0.9 0.00 0.00 0.00 50 1010.5
20260508225649 60 299 0.0 0.0 0.00 0.00 0.00 50 1010.4
20260508225144 61 292 1.7 2.6 0.00 0.00 0.00 49 1010.4
20260508224643 61 286 1.7 1.7 0.00 0.00 0.00 48 1010.5
20260508224140 61 303 0.9 0.9 0.00 0.00 0.00 48 1010.7
20260508223638 61 292 0.0 0.0 0.00 0.00 0.00 49 1010.5
20260508223135 61 304 1.7 1.7 0.00 0.00 0.00 49 1010.6
20260508222632 60 304 0.9 1.7 0.00 0.00 0.00 50 1010.6
20260508222129 61 301 1.7 1.7 0.00 0.00 0.00 49 1010.7
20260508221625 61 298 0.9 0.9 0.00 0.00 0.00 49 1010.4
20260508221121 61 294 1.7 2.6 0.00 0.00 0.00 48 1010.6
20260508220618 62 303 1.7 2.6 0.00 0.00 0.00 46 1010.4
20260508220114 63 260 1.7 2.6 0.00 0.00 0.00 46 1010.5
20260508215611 63 231 1.7 2.6 0.00 0.00 0.00 45 1010.2
20260508215108 63 278 1.7 1.7 0.00 0.00 0.00 44 1010.4
20260508214605 63 264 1.7 2.6 0.00 0.00 0.00 45 1010.5
20260508214101 63 272 2.6 2.6 0.00 0.00 0.00 43 1010.4
20260508213558 62 291 2.6 3.5 0.00 0.00 0.00 43 1010.3
20260508213054 63 291 4.3 6.1 0.00 0.00 0.00 44 1010.4
20260508212551 63 276 2.6 3.5 0.00 0.00 0.00 44 1010.4
20260508212048 62 227 3.5 5.2 0.00 0.00 0.00 44 1010.4
20260508211543 61 279 2.6 2.6 0.00 0.00 0.00 45 1010.5
20260508211040 61 300 0.9 1.7 0.00 0.00 0.00 48 1010.7
20260508210536 61 273 1.7 2.6 0.00 0.00 0.00 47 1010.5
20260508210034 61 293 1.7 1.7 0.00 0.00 0.00 47 1010.6
20260508205531 62 225 2.6 3.5 0.00 0.00 0.00 46 1010.5
20260508205027 62 306 2.6 2.6 0.00 0.00 0.00 45 1010.4
20260508204524 61 267 2.6 2.6 0.00 0.00 0.00 46 1010.6
20260508204020 61 255 1.7 2.6 0.00 0.00 0.00 46 1010.7
20260508203516 61 276 1.7 1.7 0.00 0.00 0.00 46 1010.7
20260508203012 61 274 1.7 1.7 0.00 0.00 0.00 47 1010.5
20260508202509 61 300 1.7 1.7 0.00 0.00 0.00 45 1010.7
20260508202006 62 316 4.3 6.1 0.00 0.00 0.00 44 1010.4
20260508201503 62 260 2.6 3.5 0.00 0.00 0.00 42 1010.4
20260508200959 62 290 1.7 2.6 0.00 0.00 0.00 42 1010.4
20260508200456 62 202 6.1 7.8 0.00 0.00 0.00 41 1010.5
20260508195950 62 302 0.9 0.9 0.00 0.00 0.00 43 1010.3
20260508195449 63 299 1.7 2.6 0.00 0.00 0.00 42 1010.2
20260508194944 62 189 2.6 5.2 0.00 0.00 0.00 42 1010.4
20260508194442 63 196 4.3 9.6 0.00 0.00 0.00 41 1010.4
20260508193939 63 327 3.5 3.5 0.00 0.00 0.00 42 1010.3
20260508193436 64 321 0.9 0.9 0.00 0.00 0.00 41 1010.5
20260508192932 64 292 1.7 2.6 0.00 0.00 0.00 41 1010.3
20260508192429 62 282 2.6 3.5 0.00 0.00 0.00 43 1010.5
20260508191926 63 251 1.7 2.6 0.00 0.00 0.00 43 1010.5
20260508191423 63 307 0.9 0.9 0.00 0.00 0.00 40 1010.5
20260508190920 63 324 3.5 6.1 0.00 0.00 0.00 40 1010.6
20260508190417 63 211 3.5 7.0 0.00 0.00 0.00 41 1010.6
20260508185913 62 326 3.5 5.2 0.00 0.00 0.00 41 1010.5
20260508185411 62 301 0.0 0.9 0.00 0.00 0.00 41 1010.7
20260508184908 62 289 1.7 2.6 0.00 0.00 0.00 40 1010.8
20260508184405 62 201 9.6 11.3 0.00 0.00 0.00 40 1010.8
20260508183901 62 39 2.6 3.5 0.00 0.00 0.00 40 1010.8
20260508183358 63 19 4.3 8.7 0.00 0.00 0.00 40 1010.8
20260508182848 63 248 3.5 6.1 0.00 0.00 0.00 39 1010.9
20260508182345 64 276 5.2 8.7 0.00 0.00 0.00 39 1010.8
20260508181840 64 289 2.6 3.5 0.00 0.00 0.00 38 1010.9
20260508181337 63 228 1.7 3.5 0.00 0.00 0.00 40 1010.9
20260508180835 64 217 1.7 1.7 0.00 0.00 0.00 41 1010.9
20260508180331 63 345 2.6 3.5 0.00 0.00 0.00 39 1010.8
20260508175827 63 173 5.2 7.8 0.00 0.00 0.00 39 1011.0
20260508175324 62 260 3.5 7.0 0.00 0.00 0.00 41 1011.1
20260508174823 62 119 3.5 5.2 0.00 0.00 0.00 41 1011.0
20260508174320 62 190 6.1 7.8 0.00 0.00 0.00 40 1011.1
20260508173816 62 167 4.3 6.1 0.00 0.00 0.00 42 1011.3
20260508173313 62 248 3.5 5.2 0.00 0.00 0.00 41 1011.2
20260508172809 63 182 4.3 13.0 0.00 0.00 0.00 39 1011.2
20260508172307 63 207 8.7 11.3 0.00 0.00 0.00 39 1011.1
20260508171803 63 274 5.2 7.0 0.00 0.00 0.00 41 1011.2
20260508171259 63 255 5.2 7.0 0.00 0.00 0.00 40 1011.2
20260508170755 62 247 4.3 7.0 0.00 0.00 0.00 39 1011.5
20260508170254 62 176 6.1 13.0 0.00 0.00 0.00 39 1011.3
20260508165750 61 199 5.2 6.1 0.00 0.00 0.00 40 1011.2
20260508165247 61 89 1.7 3.5 0.00 0.00 0.00 39 1011.4
20260508164737 60 71 4.3 5.2 0.00 0.00 0.00 40 1011.5
20260508164234 61 228 5.2 7.8 0.00 0.00 0.00 39 1011.4
20260508163732 61 189 3.5 6.1 0.00 0.00 0.00 39 1011.6
20260508163230 62 117 5.2 7.8 0.00 0.00 0.00 40 1011.6
20260508162725 62 221 6.1 9.6 0.00 0.00 0.00 39 1011.4
20260508162222 62 245 7.0 9.6 0.00 0.00 0.00 38 1011.4
20260508161719 63 160 6.1 11.3 0.00 0.00 0.00 37 1011.8
20260508161217 62 357 6.1 8.7 0.00 0.00 0.00 38 1011.8
20260508160714 61 255 4.3 6.1 0.00 0.00 0.00 40 1011.9
20260508160213 61 214 5.2 7.0 0.00 0.00 0.00 41 1011.7
20260508155709 62 194 5.2 9.6 0.00 0.00 0.00 41 1011.8
20260508155206 60 222 5.2 7.8 0.00 0.00 0.00 39 1011.9
20260508154703 61 215 3.5 6.1 0.00 0.00 0.00 40 1011.7
20260508154200 62 257 3.5 5.2 0.00 0.00 0.00 38 1011.8
20260508153656 62 179 4.3 5.2 0.00 0.00 0.00 39 1011.9
20260508153154 62 211 1.7 1.7 0.00 0.00 0.00 39 1011.7
20260508152650 62 288 2.6 3.5 0.00 0.00 0.00 39 1011.9
20260508152146 62 235 2.6 3.5 0.00 0.00 0.00 38 1011.8
20260508151642 62 248 1.7 2.6 0.00 0.00 0.00 38 1011.7